Location: Ariel
(45.9570°N, 122.5700°W)
Time: 07:07:53
(UTC-08:00)

Transit 4A - Pass Details

Date: 04 November 2020
Orbit: 862 x 982 km, 66.8° (Epoch: 03 December)

Event Time Altitude Azimuth Distance (km) Brightness Sun altitude
Rises 20:39:33 0° 329° (NNW) 3,696 11.6 -39.7°
Reaches altitude 10° 20:42:33 10° 340° (NNW) 2,744 10.7 -40.2°
Enters shadow 20:44:02 16° 350° (N) 2,329 10.2 -40.4°
